Regional Weather Roundup
Issued by NWS

Home | Current Version | Previous Version | Text Only | Print | Product List | Glossary On
Versions: 1 2 3 4 5 6 7 8 9 10 11 12 13 14 15 16 17 18 19 20 21 22 23 24 25 26 27 28 29 30 31 32 33 34 35 36 37 38 39 40 41 42 43 44 45 46 47 48 49 50
000
ASUS45 KBOI 260610
RWRID
WEATHER ROUNDUP FOR IDAHO
NATIONAL WEATHER SERVICE BOISE ID
1100 PM MST TUE NOV 25 2014

NOTE: "FAIR" INDICATES FEW OR NO CLOUDS BELOW 12000 FEET
WITH NO SIGNIFICANT WEATHER AND/OR OBSTRUCTIONS TO VISIBILITY

IDZ012-014-260700-
SOUTHWEST IDAHO


CITY           SKY/WX    TMP DP  RH WIND       PRES   REMARKS
BOISE          MOCLDY    49  40  71 N5        30.28S
CALDWELL       NOT AVBL
MOUNTAIN HOME  MOCLDY    47  43  86 NW7       30.28S
$$

IDZ016-017-260700-
SOUTHCENTRAL IDAHO


CITY           SKY/WX    TMP DP  RH WIND       PRES   REMARKS
BURLEY         PTCLDY    48  35  60 W21G31    30.25R
JEROME         CLOUDY    46  36  68 SW16      30.29R
TWIN FALLS     CLOUDY    50  35  56 SW21      30.29R
$$

IDZ019>023-260700-
SOUTHEAST IDAHO


CITY           SKY/WX    TMP DP  RH WIND       PRES   REMARKS
IDAHO FALLS    MOCLDY    41  37  86 S21       30.12R
POCATELLO      MOCLDY    46  39  76 SW29G39   30.19R
REXBURG        CLOUDY    40  36  86 SW9       30.11R WCI  34
$$

IDZ006-010-011-018-031-032-260700-
CENTRAL IDAHO MOUNTAINS


CITY           SKY/WX    TMP DP  RH WIND       PRES   REMARKS
MCCALL         CLOUDY    35  34  96 CALM      30.23R FOG
HAILEY         CLEAR     45  34  65 W13G18    30.20R
STANLEY          N/A     37  32  82 S5        30.24S WCI  33
SALMON         CLOUDY    34  32  93 CALM      30.13S
CHALLIS        CLOUDY    43  34  70 SE8       30.13S
$$

IDZ002-004-006-007-026-260700-
NORTHERN IDAHO


CITY           SKY/WX    TMP DP  RH WIND       PRES   REMARKS
LEWISTON       CLOUDY    43  40  89 E3        30.18R
LOWELL           N/A     37  35  92 CALM      30.22S
COEUR D`ALENE  CLOUDY    34  30  86 NE7       30.16S WCI  28
MULLAN PASS    FRZ RAIN  28  25  88 VRB5      30.05S VSB 1   WCI  23
$$


USA.gov is the U.S. government's official web portal to all federal, state and local government web resources and services.